Location: Bidart
(43.4376°N, 1.5913°W)
Time: 15:31:15
(UTC+00:00)

Cosmos 1536 - Pass Details

Date: 19 May 2025
Orbit: 494 x 518 km, 82.5° (Epoch: 17 June)

Event Time Altitude Azimuth Distance (km) Brightness Sun altitude
Rises 21:32:09 0° 3° (N) 2,636 7.1 -17.8°
Reaches altitude 10° 21:34:34 10° 16° (NNE) 1,739 5.9 -18.0°
Maximum altitude 21:37:47 26° 74° (ENE) 1,036 4.0 -18.4°
Enters shadow 21:38:04 26° 82° (E) 1,041 4.0 -18.4°
